TimeMDT,TemperatureF,Dew PointF,Humidity,Sea Level PressureIn,VisibilityMPH,Wind Direction,Wind SpeedMPH,Gust SpeedMPH,PrecipitationIn,Events,Conditions,WindDirDegrees,DateUTC
12:51 AM,70.0,59.0,68,29.79,10.0,South,5.8,-,N/A,,Clear,170,2013-09-09 06:51:00
1:51 AM,68.0,60.1,76,29.79,10.0,SSE,4.6,-,N/A,,Clear,160,2013-09-09 07:51:00
2:51 AM,64.9,59.0,81,29.79,10.0,South,4.6,-,N/A,,Clear,180,2013-09-09 08:51:00
3:51 AM,64.0,60.1,87,29.80,10.0,SSW,4.6,-,N/A,,Clear,200,2013-09-09 09:51:00
4:51 AM,64.9,59.0,81,29.83,10.0,South,3.5,-,N/A,,Clear,170,2013-09-09 10:51:00
5:51 AM,62.1,59.0,90,29.84,10.0,Calm,Calm,-,N/A,,Clear,0,2013-09-09 11:51:00
6:51 AM,63.0,59.0,87,29.86,10.0,SE,4.6,-,N/A,,Clear,140,2013-09-09 12:51:00
7:51 AM,66.0,62.1,87,29.87,10.0,SSE,8.1,-,N/A,,Clear,150,2013-09-09 13:51:00
8:10 AM,66.2,62.6,88,30.04,10.0,SSE,9.2,-,N/A,,Mostly Cloudy,150,2013-09-09 14:10:00
8:51 AM,69.1,63.0,81,29.88,10.0,South,12.7,-,N/A,,Mostly Cloudy,170,2013-09-09 14:51:00
9:24 AM,71.6,62.6,73,30.04,10.0,SSE,8.1,-,N/A,,Scattered Clouds,150,2013-09-09 15:24:00
9:51 AM,73.0,63.0,71,29.87,10.0,SSE,9.2,-,N/A,,Clear,160,2013-09-09 15:51:00
10:51 AM,75.0,63.0,66,29.87,10.0,SSE,10.4,-,N/A,,Clear,150,2013-09-09 16:51:00
11:51 AM,79.0,62.1,56,29.86,10.0,SSE,9.2,-,N/A,,Clear,160,2013-09-09 17:51:00
12:51 PM,81.0,61.0,50,29.83,10.0,SSE,13.8,20.7,N/A,,Partly Cloudy,150,2013-09-09 18:51:00
1:51 PM,84.0,59.0,43,29.80,10.0,SE,17.3,24.2,N/A,,Partly Cloudy,130,2013-09-09 19:51:00
2:51 PM,84.9,59.0,41,29.78,10.0,ESE,16.1,28.8,N/A,,Partly Cloudy,120,2013-09-09 20:51:00
3:51 PM,84.9,57.0,38,29.75,10.0,ESE,17.3,23.0,N/A,,Clear,120,2013-09-09 21:51:00
4:51 PM,86.0,55.9,36,29.73,10.0,SE,13.8,-,N/A,,Clear,140,2013-09-09 22:51:00
5:51 PM,86.0,54.0,33,29.73,10.0,SSE,16.1,-,N/A,,Partly Cloudy,150,2013-09-09 23:51:00
6:51 PM,84.0,57.0,40,29.74,10.0,SE,16.1,-,N/A,,Partly Cloudy,140,2013-09-10 00:51:00
7:51 PM,79.0,60.1,52,29.78,10.0,SSE,21.9,32.2,N/A,,Clear,160,2013-09-10 01:51:00
8:51 PM,75.9,57.9,54,29.80,10.0,South,11.5,-,N/A,,Clear,170,2013-09-10 02:51:00
9:51 PM,73.9,59.0,59,29.82,10.0,SSE,9.2,-,N/A,,Clear,150,2013-09-10 03:51:00
10:51 PM,73.0,57.9,59,29.83,10.0,SSE,9.2,-,N/A,,Clear,150,2013-09-10 04:51:00
11:51 PM,72.0,57.9,61,29.82,10.0,SE,6.9,-,N/A,,Clear,140,2013-09-10 05:51:00